sat.trackr.live / text

‹ back to catalog

TSAT-1A

NORAD 59442 · 2024-066A

PAYLOAD ACTIVE UNKNOWN

§ Identity

Operator
Country
IND
Launch date
2024-04-07
Launch site
AFETR
Launch vehicle
Mass (kg)
RCS (m²)

External: N2YO · Heavens-Above · Gunter

§ Orbital elements

Epoch: 2026-05-25T03:16:12.902016Z

Period
93.80 min
Inclination
45.6163°
Eccentricity
0.0012085
Mean motion
15.35146214 rev/d
Perigee alt
452.2 km
Apogee alt
468.8 km
Semi-major
6,838.6 km
B*
3.2701e-4
RAAN
246.4748°
Arg perigee
330.4332°
Mean anomaly
29.5879°
Rev number
11,823

§ Raw data

TSAT-1A1 59442U 24066A   26145.13626044  .00011081  00000+0  32701-3 0  99922 59442  45.6163 246.4748 0012085 330.4332  29.5879 15.35146214118237

JSON: /api/v1/satellites/59442 · /tle

For live sub-satellite position, see the globe view (requires WebGL).

§ Visibility from observer

Set your observer location to see the next 7 days of passes ≥ 10°. The values pass through the URL so the page stays shareable.

No JS? Fill the form by hand. The geolocation button needs JavaScript.